Location: Kawakawa
(35.3830°S, 174.0670°E)
Time: 01:47:43
(UTC+13:00)

Altair - Pass Details

Date: 13 December 2019
Orbit: 1502 x 1682 km, 47.2° (Epoch: 18 January)

Event Time Altitude Azimuth Distance (km) Brightness Sun altitude
Rises 18:21:02 0° 246° (WSW) 4,949 11.5 24.3°
Reaches altitude 10° 18:25:09 10° 259° (W) 3,958 11.7 23.4°
Maximum altitude 18:32:17 22° 304° (NW) 3,084 9.9 22.0°
Drops below altitude 10° 18:39:21 10° 350° (N) 3,897 9.6 20.6°
Sets 18:43:25 0° 4° (N) 4,853 9.9 19.8°
